Location: Cicognara
(44.9500°N, 10.4667°E)
Time: 07:38:31
(UTC+00:00)

NOSS 2-3 (D) - Pass Details

Date: 20 June 2021
Orbit: 559 x 1652 km, 63.4° (Epoch: 23 July)

Event Time Altitude Azimuth Distance (km) Brightness Sun altitude
Exits shadow 22:51:06 37° 106° (ESE) 939 4.2 -21.3°
Drops below altitude 10° 22:54:59 10° 51° (NE) 2,086 6.7 -21.4°
Sets 22:57:38 0° 43° (NE) 3,137 7.8 -21.4°
